Regional Weather Roundup
Issued by NWS

Home | Current Version | Previous Version | Graphics & Text | Print | Product List | Glossary On
Versions: 1 2 3 4 5 6 7 8 9 10 11 12 13 14 15 16 17 18 19 20 21 22 23 24 25 26 27 28 29 30 31 32 33 34 35 36 37 38 39 40 41 42 43 44 45 46 47 48 49 50
326
ASUS43 KLOT 200209
RWRIL

ILLINOIS REGIONAL WEATHER ROUNDUP
NATIONAL WEATHER SERVICE CHICAGO/ROMEOVILLE IL
900 PM CDT THU OCT 19 2017

NOTE: "FAIR" INDICATES FEW OR NO CLOUDS BELOW 12,000 FEET WITH NO
SIGNIFICANT WEATHER AND/OR OBSTRUCTIONS TO VISIBILITY.

* THESE STATIONS ARE NOT UNDER NWS QUALITY CONTROL. THEY ALSO MAY NOT
  REPORT WEATHER SUCH AS PRECIPITATION OR FOG.

ILZ001-002-007-009-015-016-024-200300-
NORTHWEST ILLINOIS

CITY           SKY/WX    TMP DP  RH WIND       PRES   REMARKS
MOLINE         CLEAR     57  49  74 SE5       30.10S
STERLING*      CLEAR     54  43  66 SE6         N/A
SAVANNA*       CLOUDY    57  42  56 S5        30.11S
$$

ILZ003-004-008-010-011-017-018-200300-
NORTH CENTRAL ILLINOIS

CITY           SKY/WX    TMP DP  RH WIND       PRES   REMARKS
ROCKFORD       CLOUDY    56  35  45 S5        30.14F
FREEPORT*      CLOUDY    52  36  54 S5        30.14F
ROCHELLE*      CLOUDY    53  38  55 SE6       30.14S
DE KALB*       CLEAR     57  36  45 SE8       30.16S
PERU*          CLEAR     59  43  55 E6        30.14S
$$

ILZ005-006-012>014-019>023-200300-
NORTHEAST ILLINOIS

CITY           SKY/WX    TMP DP  RH WIND       PRES   REMARKS
CHICAGO-OHARE  PTCLDY    55  33  43 SE8       30.16S
CHICAGO-MIDWAY CLOUDY    58  42  55 SE6       30.16F
AURORA         CLEAR     52  40  63 SE5       30.15F
LANSING*       CLOUDY    51  41  69 CALM      30.18S
JOLIET*        CLEAR     58  37  44 SE3       30.16S
WAUKEGAN       CLEAR     47  33  58 S5        30.15F
DUPAGE AIRPORT CLEAR     54  34  46 SE5       30.15F
KANKAKEE*      HAZE      54  42  63 SE7       30.17S VSB 1/2
WHEELING       CLEAR     51  36  56 CALM      30.18S
MORRIS*        CLEAR     58  36  44 E7        30.14S
ROMEOVILLE*    CLEAR     55  36  48 SE8       30.16S
NORTHERLY ISL    N/A     58  48  69 SE2         N/A
$$

LMZ740>746-200300-
SOUTHERN LAKE MICHIGAN

STATION/POSITION SKY/WX   TEMP    WIND        PRES    VSBY  WAVE
                          AIR SEA DIR/SP/G                  HT/PER
                          (F)     (DEG/KT/KT) (MB)    (MI)  (FT/S)
SOUTHERN BUOY              61 61  170/ 12/ 12 1021.4F         1/ 3
WILMETTE HARBOR            59 58  150/  8/ 10   N/A           1/ 2
HARRISON CRIB              61     160/  7/  7   N/A
BURNHAM HARBOR             58     130/  3/  5   N/A
CALUMET HARBOR             58      80/  1/  2 1020.8F
BURNS HARBOR               63     150/  3/  6 1022.0F
MICHIGAN CITY              55     120/  7/  7   N/A
MICHIGAN CITY 6N           58 58  140/  6/  6   N/A           1/ 4
ST. JOSEPH                 57 59  130/  4/  6 1022.4          1/ 4
$$

ILZ025>027-034>036-040-047-049-050-058-095>099-200300-
WEST-CENTRAL ILLINOIS

CITY           SKY/WX    TMP DP  RH WIND       PRES   REMARKS
GALESBURG*     CLEAR     70  60  71 S7        30.12F
MACOMB*        CLEAR     65  51  61 S8        30.14S
JACKSONVILLE*  CLEAR     63  50  64 SE6       30.14S
PITTSFIELD*    CLEAR     64  52  67 CALM      30.14S
$$

ILZ028>032-037-038-041>044-048-051>054-059>061-200300-
CENTRAL ILLINOIS

CITY           SKY/WX    TMP DP  RH WIND       PRES   REMARKS
PONTIAC        CLEAR     57  53  84 SE7       30.15F
BLOOMINGTON    CLEAR     58  50  75 S7        30.17S
DECATUR        CLEAR     61  50  67 S5        30.17S
PEORIA         CLEAR     63  52  67 S6        30.13S
LACON*         CLEAR     62  51  67 SE5       30.12S
LINCOLN*       CLEAR     62  52  69 S3        30.15S
SPRINGFIELD    CLEAR     58  51  78 CALM      30.15F
TAYLORVILLE    CLEAR     57  51  79 CALM      30.16S
$$

ILZ033-039-045-046-055>057-062-063-200300-
EAST-CENTRAL ILLINOIS

CITY           SKY/WX    TMP DP  RH WIND       PRES   REMARKS
CHAMPAIGN      CLEAR     60  49  66 S9        30.18S
DANVILLE*      CLEAR     60  52  74 SE3       30.16S
RANTOUL*       CLEAR     61  55  81 CALM      30.17S
MATTOON        CLEAR     61  52  72 S6        30.17S
PARIS*         CLEAR     56  51  81 S5        30.19S
$$

ILZ079-100>102-200300-
SOUTHWEST ILLINOIS

CITY           SKY/WX    TMP DP  RH WIND       PRES   REMARKS
BELLEVILLE     CLEAR     61  48  62 SE2       30.18F
CAHOKIA*       CLEAR     65  49  56 SE7       30.15S
SPARTA*        CLEAR     63  51  65 SE5       30.18S
$$

ILZ064>066-069>071-074>076-080>082-084>086-088>090-092>094-200300-
SOUTH-CENTRAL ILLINOIS

CITY           SKY/WX    TMP DP  RH WIND       PRES   REMARKS
CARBONDALE     CLEAR     54  52  93 CALM      30.19S
CAIRO*         CLEAR     53  53  99 CALM      30.20S
EFFINGHAM*     CLEAR     56  52  86 CALM      30.20S
MARION         CLEAR     61  53  74 CALM      30.20S
MT. VERNON     CLEAR     52  51  97 CALM      30.19F
CENTRALIA*     CLEAR     62  52  69 S7        30.18S
SALEM*         CLEAR     66  50  56 S5        30.18S
METROPOLIS*    CLEAR     55  53  92 CALM      30.21S
$$

ILZ067-068-072-073-078-083-087-091-200300-
SOUTHEAST ILLINOIS

CITY           SKY/WX    TMP DP  RH WIND       PRES   REMARKS
LAWRENCEVILLE  CLEAR     61  52  72 S6        30.20S
FLORA*         CLEAR     59  52  78 S3        30.19S
FAIRFIELD*     CLEAR     58  52  81 CALM      30.19S
HARRISBURG*    CLEAR     56  52  86 CALM      30.20F
ROBINSON*      CLEAR     51  49  91 CALM      30.20S
CARMI*         CLEAR     55  50  84 S5        30.20S
$$

ABBREVIATIONS USED IN REMARKS
   TC - TEMPERATURE IN CELSIUS
  WCI - WIND CHILL INDEX
   HX - HEAT INDEX
  VSB - VISIBILITY
$$





USA.gov is the U.S. government's official web portal to all federal, state and local government web resources and services.